Flag for Canada Weather past 2 weeks in Corner Brook, Newfoundland and Labrador, Canada

Now
54 °F

Partly sunny.


Feels Like: 53 °F
Forecast: 47 / 56 °F
Wind: 5 mph from Northwest

Location: Deer Lake

Current Time: Sep 4, 2015 at 10:09:19 AM

Latest Report: Sep 4, 2015 at 9:30 AM


Visibility: 15 mi

Pressure: 29.96 "Hg

Humidity: 82%

Dew point: 48 °F

Location of Corner BrookLocation

Historic Weather in Corner Brook — Graph

°F

Corner Brook temperature yesterday

Maximum temperature yesterday: 68 °F (at 1:30 PM)
Minimum temperature yesterday: 48 °F (at 5:30 AM)
Average temperature yesterday: 59 °F

Past Weeks' High & Low Weather Summary

 TemperatureHumidityPressure
High82 °F (Aug 20, 4:30 PM)100% (Aug 22, 7:30 PM)30.31 "Hg (Aug 22, 7:30 PM)
Low36 °F (Sep 2, 5:30 AM)42% (Aug 23, 3:30 PM)29.45 "Hg (Sep 1, 4:30 AM)
Average64 °F83%29.94 "Hg
* Reported Aug 20 8:30 AM — Sep 4 8:30 AM, Corner Brook, Weather by CustomWeather, © 2015

Note: Actual official high and low records may vary slightly from our data, if they occured in-between our weather recording intervals... More about our weather records

Advertising

Corner Brook weather history for previous 24 hours

 ConditionsComfort  
Time TempWeatherWind HumidityBarometerVisibility
8:30 AM
Fri, Sep 4
52 °FPartly sunny.3 mph88%29.94 "Hg15 mi
7:30 AM50 °FPartly sunny.3 mph94%29.91 "Hg15 mi
6:30 AM50 °FPassing clouds.5 mph94%29.88 "Hg15 mi
5:30 AM50 °FPassing clouds.3 mph88%29.86 "Hg15 mi
4:30 AM50 °FPassing clouds.2 mph88%29.84 "Hg15 mi
3:30 AM52 °FPassing clouds.5 mph82%29.82 "Hg15 mi
2:30 AM52 °FPassing clouds.No wind94%29.79 "Hg15 mi
1:30 AM52 °FPassing clouds.6 mph88%29.76 "Hg15 mi
12:30 AM55 °FPassing clouds.8 mph82%29.73 "Hg15 mi
11:30 PM
Thu, Sep 3
57 °FPassing clouds.7 mph82%29.70 "Hg15 mi
10:30 PM57 °FPartly cloudy.10 mph88%29.69 "Hg15 mi
9:30 PM57 °FPartly cloudy.7 mph88%29.68 "Hg15 mi
8:30 PM59 °FPassing clouds.7 mph82%29.66 "Hg15 mi
7:30 PM61 °FBroken clouds.3 mph88%29.63 "Hg15 mi
6:30 PM63 °FBroken clouds.9 mph77%29.59 "Hg12 mi
5:30 PM66 °FBroken clouds.10 mph73%29.59 "Hg12 mi
4:30 PM64 °FBroken clouds.10 mph83%29.59 "Hg15 mi
3:30 PM68 °FBroken clouds.17 mph78%29.56 "Hg12 mi
2:30 PM68 °FMild.6 mph88%29.55 "Hg12 mi
1:30 PM68 °FPartly sunny.9 mph88%29.56 "Hg15 mi
11:30 AM61 °FThunderstorms. Mostly cloudy.5 mph94%29.58 "Hg12 mi
10:30 AM61 °FPartly sunny.No wind94%29.58 "Hg12 mi
Weather by CustomWeather, © 2015

See weather overviewHow to use our weather pages